Time,TemperatureF,DewpointF,PressureIn,WindDirection,WindDirectionDegrees,WindSpeedMPH,WindSpeedGustMPH,Humidity,HourlyPrecipIn,Conditions,Clouds,dailyrainin,SolarRadiationWatts/m^2,SoftwareType,DateUTC
2013-04-17 00:00:00,52.0,43.5,30.13,WNW,297,2.0,12.0,73,0.02,,,0.27,0.0,meteohub,2013-04-17 04:00:00,
2013-04-17 00:01:00,52.0,43.5,30.13,WNW,294,3.0,12.0,73,0.02,,,0.27,0.0,meteohub,2013-04-17 04:01:00,
2013-04-17 00:02:00,52.0,43.5,30.13,NW,313,14.0,14.0,73,0.02,,,0.27,0.0,meteohub,2013-04-17 04:02:00,
2013-04-17 00:03:00,52.0,42.8,30.13,West,281,2.0,12.0,71,0.02,,,0.27,0.0,meteohub,2013-04-17 04:03:00,
2013-04-17 00:08:00,52.0,42.8,30.14,NW,317,5.0,15.0,71,0.02,,,0.27,0.0,meteohub,2013-04-17 04:08:00,
2013-04-17 00:13:00,52.0,42.1,30.14,West,269,6.0,15.0,69,0.02,,,0.00,0.0,meteohub,2013-04-17 04:13:00,
2013-04-17 00:19:00,52.0,42.1,30.13,WNW,290,3.0,15.0,69,0.02,,,0.00,0.0,meteohub,2013-04-17 04:19:00,
2013-04-17 00:24:00,52.0,41.7,30.14,NNE,23,2.0,15.0,68,0.02,,,0.00,0.0,meteohub,2013-04-17 04:24:00,
2013-04-17 00:29:00,52.0,41.7,30.15,NW,304,0.0,12.0,68,0.00,,,0.00,0.0,meteohub,2013-04-17 04:29:00,
2013-04-17 00:35:00,52.0,41.7,30.15,WNW,301,2.0,12.0,68,0.00,,,0.00,0.0,meteohub,2013-04-17 04:35:00,
2013-04-17 00:40:00,51.8,41.9,30.16,NW,319,0.0,13.0,69,0.00,,,0.00,0.0,meteohub,2013-04-17 04:40:00,
2013-04-17 00:45:00,51.6,41.4,30.16,NW,304,7.0,13.0,68,0.00,,,0.00,0.0,meteohub,2013-04-17 04:45:00,
2013-04-17 00:50:00,51.6,41.4,30.16,West,266,0.0,13.0,68,0.00,,,0.00,0.0,meteohub,2013-04-17 04:50:00,
2013-04-17 00:56:00,51.6,41.4,30.17,WSW,250,3.0,13.0,68,0.00,,,0.00,0.0,meteohub,2013-04-17 04:56:00,
2013-04-17 01:01:00,51.4,41.5,30.17,WNW,285,3.0,13.0,69,0.00,,,0.00,0.0,meteohub,2013-04-17 05:01:00,
2013-04-17 01:07:00,51.4,41.9,30.17,WNW,292,3.0,11.0,70,0.00,,,0.00,0.0,meteohub,2013-04-17 05:07:00,
2013-04-17 01:12:00,51.3,41.9,30.17,West,281,5.0,11.0,70,0.00,,,0.00,0.0,meteohub,2013-04-17 05:12:00,
2013-04-17 01:17:00,51.3,41.9,30.17,West,277,0.0,11.0,70,0.00,,,0.00,0.0,meteohub,2013-04-17 05:17:00,
2013-04-17 01:22:00,51.1,42.1,30.17,WNW,300,3.0,11.0,71,0.00,,,0.00,0.0,meteohub,2013-04-17 05:22:00,
2013-04-17 01:27:00,51.1,42.1,30.17,NW,320,7.0,10.0,71,0.00,,,0.00,0.0,meteohub,2013-04-17 05:27:00,
2013-04-17 01:32:00,50.9,41.9,30.17,SW,233,3.0,10.0,71,0.00,,,0.00,0.0,meteohub,2013-04-17 05:32:00,
2013-04-17 01:37:00,50.7,42.1,30.18,West,278,0.0,10.0,72,0.00,,,0.00,0.0,meteohub,2013-04-17 05:37:00,
2013-04-17 01:42:00,50.7,42.1,30.18,SW,235,0.0,10.0,72,0.00,,,0.00,0.0,meteohub,2013-04-17 05:42:00,
2013-04-17 01:47:00,50.7,42.4,30.18,SSW,211,0.0,9.0,73,0.00,,,0.00,0.0,meteohub,2013-04-17 05:47:00,
2013-04-17 01:52:00,50.5,42.3,30.18,SW,227,2.0,9.0,73,0.00,,,0.00,0.0,meteohub,2013-04-17 05:52:00,
2013-04-17 01:57:00,50.5,42.6,30.18,SW,227,1.0,5.0,74,0.00,,,0.00,0.0,meteohub,2013-04-17 05:57:00,
2013-04-17 02:02:00,50.4,42.4,30.17,West,263,2.0,5.0,74,0.00,,,0.00,0.0,meteohub,2013-04-17 06:02:00,
2013-04-17 02:07:00,50.2,42.3,30.17,WNW,292,0.0,10.0,74,0.00,,,0.00,0.0,meteohub,2013-04-17 06:07:00,
2013-04-17 02:12:00,50.2,42.6,30.17,WSW,240,1.0,10.0,75,0.00,,,0.00,0.0,meteohub,2013-04-17 06:12:00,
2013-04-17 02:17:00,50.2,42.6,30.17,West,271,1.0,10.0,75,0.00,,,0.00,0.0,meteohub,2013-04-17 06:17:00,
2013-04-17 02:22:00,49.8,42.3,30.16,WNW,288,4.0,10.0,75,0.00,,,0.00,0.0,meteohub,2013-04-17 06:22:00,
2013-04-17 02:27:00,49.8,42.3,30.17,NW,304,5.0,10.0,75,0.00,,,0.00,0.0,meteohub,2013-04-17 06:27:00,
2013-04-17 02:33:00,49.8,42.6,30.17,SW,228,2.0,10.0,76,0.00,,,0.00,0.0,meteohub,2013-04-17 06:33:00,
2013-04-17 02:38:00,49.6,42.4,30.17,WNW,286,5.0,10.0,76,0.00,,,0.00,0.0,meteohub,2013-04-17 06:38:00,
2013-04-17 02:43:00,49.6,42.1,30.17,West,270,1.0,10.0,75,0.00,,,0.00,0.0,meteohub,2013-04-17 06:43:00,
2013-04-17 02:49:00,49.5,42.3,30.17,NW,306,0.0,10.0,76,0.00,,,0.00,0.0,meteohub,2013-04-17 06:49:00,
2013-04-17 02:54:00,49.3,41.7,30.17,NW,320,3.0,9.0,75,0.00,,,0.00,0.0,meteohub,2013-04-17 06:54:00,
2013-04-17 02:59:00,49.3,41.7,30.17,WSW,250,3.0,9.0,75,0.00,,,0.00,0.0,meteohub,2013-04-17 06:59:00,
2013-04-17 03:04:00,49.1,41.5,30.17,WNW,300,4.0,9.0,75,0.00,,,0.00,0.0,meteohub,2013-04-17 07:04:00,
2013-04-17 03:10:00,48.9,41.4,30.17,WNW,288,3.0,9.0,75,0.00,,,0.00,0.0,meteohub,2013-04-17 07:10:00,
2013-04-17 03:15:00,48.9,41.4,30.17,WNW,301,4.0,9.0,75,0.00,,,0.00,0.0,meteohub,2013-04-17 07:15:00,
2013-04-17 03:20:00,48.7,41.2,30.17,NW,313,4.0,9.0,75,0.00,,,0.00,0.0,meteohub,2013-04-17 07:20:00,
2013-04-17 03:25:00,48.6,41.4,30.17,NW,319,5.0,10.0,76,0.00,,,0.00,0.0,meteohub,2013-04-17 07:25:00,
2013-04-17 03:31:00,48.6,41.4,30.17,NW,315,1.0,10.0,76,0.00,,,0.00,0.0,meteohub,2013-04-17 07:31:00,
2013-04-17 03:37:00,48.6,41.4,30.17,NNW,348,3.0,12.0,76,0.00,,,0.00,0.0,meteohub,2013-04-17 07:37:00,
2013-04-17 03:42:00,48.4,41.2,30.17,NW,316,2.0,12.0,76,0.00,,,0.00,0.0,meteohub,2013-04-17 07:42:00,
2013-04-17 03:47:00,48.2,41.0,30.17,WNW,299,0.0,12.0,76,0.00,,,0.00,0.0,meteohub,2013-04-17 07:47:00,
2013-04-17 03:52:00,48.0,40.8,30.18,North,0,2.0,12.0,76,0.00,,,0.00,0.0,meteohub,2013-04-17 07:52:00,
2013-04-17 03:57:00,47.8,40.6,30.18,West,269,2.0,11.0,76,0.00,,,0.00,0.0,meteohub,2013-04-17 07:57:00,
2013-04-17 04:02:00,47.7,40.5,30.18,NW,321,0.0,11.0,76,0.00,,,0.00,0.0,meteohub,2013-04-17 08:02:00,
2013-04-17 04:07:00,47.5,40.3,30.19,WNW,284,1.0,9.0,76,0.00,,,0.00,0.0,meteohub,2013-04-17 08:07:00,
2013-04-17 04:12:00,47.3,40.5,30.18,NW,306,0.0,9.0,77,0.00,,,0.00,0.0,meteohub,2013-04-17 08:12:00,
2013-04-17 04:18:00,46.9,39.7,30.19,West,266,2.0,12.0,76,0.00,,,0.00,0.0,meteohub,2013-04-17 08:18:00,
2013-04-17 04:23:00,46.8,39.6,30.19,North,350,2.0,12.0,76,0.00,,,0.00,0.0,meteohub,2013-04-17 08:23:00,
2013-04-17 04:29:00,46.6,39.4,30.19,WSW,257,2.0,12.0,76,0.00,,,0.00,0.0,meteohub,2013-04-17 08:29:00,
2013-04-17 04:34:00,46.2,39.0,30.19,NE,47,4.0,12.0,76,0.00,,,0.00,0.0,meteohub,2013-04-17 08:34:00,
2013-04-17 04:39:00,46.0,38.8,30.19,West,277,1.0,11.0,76,0.00,,,0.00,0.0,meteohub,2013-04-17 08:39:00,
2013-04-17 04:44:00,45.9,38.7,30.19,West,272,2.0,11.0,76,0.00,,,0.00,0.0,meteohub,2013-04-17 08:44:00,
2013-04-17 04:50:00,45.7,38.5,30.19,WSW,248,0.0,10.0,76,0.00,,,0.00,0.0,meteohub,2013-04-17 08:50:00,
2013-04-17 04:55:00,45.3,38.1,30.19,West,262,1.0,10.0,76,0.00,,,0.00,0.0,meteohub,2013-04-17 08:55:00,
2013-04-17 05:00:00,45.1,37.9,30.19,North,355,2.0,7.0,76,0.00,,,0.00,0.0,meteohub,2013-04-17 09:00:00,
2013-04-17 05:06:00,45.0,37.9,30.19,NW,324,3.0,7.0,76,0.00,,,0.00,0.0,meteohub,2013-04-17 09:06:00,
2013-04-17 05:11:00,44.8,37.9,30.19,NW,309,0.0,7.0,77,0.00,,,0.00,0.0,meteohub,2013-04-17 09:11:00,
2013-04-17 05:16:00,44.8,37.9,30.19,WNW,290,3.0,7.0,77,0.00,,,0.00,0.0,meteohub,2013-04-17 09:16:00,
2013-04-17 05:22:00,44.4,37.6,30.19,NE,36,7.0,7.0,77,0.00,,,0.00,0.0,meteohub,2013-04-17 09:22:00,
2013-04-17 05:27:00,44.2,37.6,30.19,NNE,15,4.0,7.0,77,0.00,,,0.00,0.0,meteohub,2013-04-17 09:27:00,
2013-04-17 05:32:00,44.1,37.4,30.19,NNW,345,0.0,7.0,77,0.00,,,0.00,0.0,meteohub,2013-04-17 09:32:00,
2013-04-17 05:37:00,44.1,37.4,30.19,West,270,0.0,7.0,77,0.00,,,0.00,0.0,meteohub,2013-04-17 09:37:00,
2013-04-17 05:42:00,43.9,37.4,30.19,West,280,0.0,7.0,78,0.00,,,0.00,0.0,meteohub,2013-04-17 09:42:00,
2013-04-17 05:47:00,43.7,37.2,30.19,WNW,287,1.0,7.0,78,0.00,,,0.00,0.0,meteohub,2013-04-17 09:47:00,
2013-04-17 05:52:00,43.5,37.0,30.19,NW,304,5.0,7.0,78,0.00,,,0.00,0.0,meteohub,2013-04-17 09:52:00,
2013-04-17 05:57:00,43.3,36.9,30.19,WNW,284,5.0,11.0,78,0.00,,,0.00,0.0,meteohub,2013-04-17 09:57:00,
2013-04-17 06:02:00,43.3,36.9,30.20,WNW,287,1.0,11.0,78,0.00,,,0.00,0.0,meteohub,2013-04-17 10:02:00,
2013-04-17 06:07:00,43.2,36.7,30.20,WNW,300,3.0,11.0,78,0.00,,,0.00,0.0,meteohub,2013-04-17 10:07:00,
2013-04-17 06:12:00,43.2,37.0,30.20,WNW,298,5.0,17.0,79,0.00,,,0.00,0.0,meteohub,2013-04-17 10:12:00,
2013-04-17 06:17:00,43.0,36.9,30.20,NW,305,1.0,17.0,79,0.00,,,0.00,5.0,meteohub,2013-04-17 10:17:00,
2013-04-17 06:22:00,43.0,36.9,30.21,WNW,302,3.0,17.0,79,0.00,,,0.00,7.0,meteohub,2013-04-17 10:22:00,
2013-04-17 06:27:00,42.8,36.7,30.21,WNW,296,7.0,17.0,79,0.00,,,0.00,11.0,meteohub,2013-04-17 10:27:00,
2013-04-17 06:32:00,42.6,36.5,30.22,WNW,283,7.0,17.0,79,0.00,,,0.00,12.0,meteohub,2013-04-17 10:32:00,
2013-04-17 06:37:00,42.6,36.5,30.22,WNW,282,6.0,11.0,79,0.00,,,0.00,14.0,meteohub,2013-04-17 10:37:00,
2013-04-17 06:42:00,42.6,36.9,30.22,NW,304,4.0,11.0,80,0.00,,,0.00,16.0,meteohub,2013-04-17 10:42:00,
2013-04-17 06:47:00,42.6,36.9,30.22,West,279,0.0,11.0,80,0.00,,,0.00,18.0,meteohub,2013-04-17 10:47:00,
2013-04-17 06:52:00,42.4,36.7,30.23,WNW,296,3.0,11.0,80,0.00,,,0.00,19.0,meteohub,2013-04-17 10:52:00,
2013-04-17 06:57:00,42.4,36.7,30.23,North,350,2.0,11.0,80,0.00,,,0.00,21.0,meteohub,2013-04-17 10:57:00,
2013-04-17 07:02:00,42.4,36.7,30.23,NW,304,9.0,11.0,80,0.00,,,0.00,21.0,meteohub,2013-04-17 11:02:00,
2013-04-17 07:07:00,42.4,36.7,30.23,WSW,248,1.0,11.0,80,0.00,,,0.00,23.0,meteohub,2013-04-17 11:07:00,
2013-04-17 07:12:00,42.6,36.9,30.23,WNW,286,5.0,15.0,80,0.00,,,0.00,25.0,meteohub,2013-04-17 11:12:00,
2013-04-17 07:17:00,42.6,36.5,30.24,NW,314,5.0,15.0,79,0.00,,,0.00,25.0,meteohub,2013-04-17 11:17:00,
2013-04-17 07:23:00,42.8,36.7,30.24,NW,315,7.0,16.0,79,0.00,,,0.00,26.0,meteohub,2013-04-17 11:23:00,
2013-04-17 07:28:00,43.0,36.9,30.24,WNW,289,2.0,16.0,79,0.00,,,0.00,26.0,meteohub,2013-04-17 11:28:00,
2013-04-17 07:33:00,43.2,37.0,30.25,WNW,294,6.0,16.0,79,0.00,,,0.00,28.0,meteohub,2013-04-17 11:33:00,
2013-04-17 07:38:00,43.2,37.0,30.25,NNW,335,4.0,12.0,79,0.00,,,0.00,28.0,meteohub,2013-04-17 11:38:00,
2013-04-17 07:43:00,43.3,37.2,30.25,WNW,283,3.0,12.0,79,0.00,,,0.00,30.0,meteohub,2013-04-17 11:43:00,
2013-04-17 07:48:00,43.5,37.0,30.26,NNW,331,4.0,12.0,78,0.00,,,0.00,30.0,meteohub,2013-04-17 11:48:00,
2013-04-17 07:54:00,43.7,37.2,30.26,WNW,302,0.0,17.0,78,0.00,,,0.00,30.0,meteohub,2013-04-17 11:54:00,
2013-04-17 07:59:00,43.9,37.4,30.26,NW,308,0.0,17.0,78,-99.99,,,0.00,32.0,meteohub,2013-04-17 11:59:00,
2013-04-17 08:04:00,44.2,37.8,30.26,WNW,293,3.0,11.0,78,0.00,,,0.00,32.0,meteohub,2013-04-17 12:04:00,
2013-04-17 08:09:00,44.4,37.6,30.27,West,279,3.0,11.0,77,0.00,,,0.00,33.0,meteohub,2013-04-17 12:09:00,
2013-04-17 08:15:00,44.6,37.8,30.26,WSW,246,3.0,12.0,77,0.00,,,0.00,33.0,meteohub,2013-04-17 12:15:00,
2013-04-17 08:20:00,45.0,37.9,30.26,WNW,301,3.0,12.0,76,0.00,,,0.00,33.0,meteohub,2013-04-17 12:20:00,
2013-04-17 08:25:00,45.1,37.8,30.27,WNW,286,10.0,12.0,75,0.00,,,0.00,35.0,meteohub,2013-04-17 12:25:00,
2013-04-17 08:30:00,45.3,38.1,30.26,NW,309,3.0,13.0,76,0.00,,,0.00,35.0,meteohub,2013-04-17 12:30:00,
2013-04-17 08:36:00,45.7,38.3,30.26,NW,319,3.0,13.0,75,0.00,,,0.00,37.0,meteohub,2013-04-17 12:36:00,
2013-04-17 08:41:00,46.0,38.5,30.27,WNW,285,3.0,10.0,75,0.00,,,0.00,37.0,meteohub,2013-04-17 12:41:00,
2013-04-17 08:46:00,46.2,38.5,30.27,West,275,2.0,10.0,74,0.00,,,0.00,39.0,meteohub,2013-04-17 12:46:00,
2013-04-17 08:52:00,46.4,38.3,30.27,WNW,295,2.0,10.0,73,0.00,,,0.00,39.0,meteohub,2013-04-17 12:52:00,
2013-04-17 08:57:00,46.8,38.3,30.26,NW,320,6.0,13.0,72,0.00,,,0.00,142.0,meteohub,2013-04-17 12:57:00,
2013-04-17 09:02:00,46.9,38.3,30.27,WNW,295,5.0,13.0,72,0.00,,,0.00,225.0,meteohub,2013-04-17 13:02:00,
2013-04-17 09:07:00,47.5,39.2,30.27,WNW,298,4.0,13.0,73,0.00,,,0.00,503.0,meteohub,2013-04-17 13:07:00,
2013-04-17 09:12:00,47.8,38.8,30.27,WNW,298,4.0,14.0,71,0.00,,,0.00,540.0,meteohub,2013-04-17 13:12:00,
2013-04-17 09:17:00,48.0,38.7,30.27,NW,325,2.0,14.0,70,0.00,,,0.00,422.0,meteohub,2013-04-17 13:17:00,
2013-04-17 09:22:00,48.6,39.2,30.27,NW,308,3.0,14.0,70,0.00,,,0.00,394.0,meteohub,2013-04-17 13:22:00,
2013-04-17 09:27:00,49.1,39.7,30.27,NW,313,2.0,14.0,70,0.00,,,0.00,338.0,meteohub,2013-04-17 13:27:00,
2013-04-17 09:32:00,49.3,39.6,30.27,NNW,331,4.0,14.0,69,0.00,,,0.00,443.0,meteohub,2013-04-17 13:32:00,
2013-04-17 09:37:00,49.6,39.6,30.27,WNW,302,3.0,11.0,68,0.00,,,0.00,179.0,meteohub,2013-04-17 13:37:00,
2013-04-17 09:42:00,49.6,39.2,30.27,WNW,285,5.0,11.0,67,0.00,,,0.00,239.0,meteohub,2013-04-17 13:42:00,
2013-04-17 09:47:00,49.8,38.8,30.27,West,281,5.0,11.0,66,0.00,,,0.00,515.0,meteohub,2013-04-17 13:47:00,
2013-04-17 09:52:00,50.2,38.8,30.27,NW,322,4.0,12.0,65,0.00,,,0.00,417.0,meteohub,2013-04-17 13:52:00,
2013-04-17 09:57:00,50.5,38.5,30.27,NW,317,2.0,12.0,63,0.00,,,0.00,322.0,meteohub,2013-04-17 13:57:00,
2013-04-17 10:02:00,50.7,38.1,30.27,West,279,3.0,11.0,62,0.00,,,0.00,330.0,meteohub,2013-04-17 14:02:00,
2013-04-17 10:07:00,51.1,38.5,30.27,WNW,296,3.0,11.0,62,0.00,,,0.00,341.0,meteohub,2013-04-17 14:07:00,
2013-04-17 10:12:00,51.3,37.8,30.27,NW,312,3.0,11.0,60,0.00,,,0.00,550.0,meteohub,2013-04-17 14:12:00,
2013-04-17 10:17:00,51.4,37.2,30.27,West,269,4.0,15.0,58,0.00,,,0.00,657.0,meteohub,2013-04-17 14:17:00,
2013-04-17 10:22:00,52.0,38.1,30.27,WNW,293,4.0,15.0,59,0.00,,,0.00,413.0,meteohub,2013-04-17 14:22:00,
2013-04-17 10:27:00,52.3,37.6,30.27,West,264,5.0,15.0,57,0.00,,,0.00,492.0,meteohub,2013-04-17 14:27:00,
2013-04-17 10:32:00,52.3,37.6,30.27,NW,304,6.0,15.0,57,0.00,,,0.00,612.0,meteohub,2013-04-17 14:32:00,
2013-04-17 10:37:00,53.1,38.7,30.27,NW,308,5.0,15.0,58,0.00,,,0.00,763.0,meteohub,2013-04-17 14:37:00,
2013-04-17 10:42:00,53.4,36.7,30.27,West,272,10.0,13.0,53,0.00,,,0.00,780.0,meteohub,2013-04-17 14:42:00,
2013-04-17 10:47:00,53.8,37.6,30.27,WNW,300,1.0,13.0,54,0.00,,,0.00,789.0,meteohub,2013-04-17 14:47:00,
2013-04-17 10:52:00,54.1,36.9,30.27,SSW,207,5.0,13.0,52,0.00,,,0.00,800.0,meteohub,2013-04-17 14:52:00,
2013-04-17 10:57:00,54.3,37.0,30.27,WNW,300,6.0,13.0,52,0.00,,,0.00,807.0,meteohub,2013-04-17 14:57:00,
2013-04-17 11:03:00,54.5,36.7,30.27,SW,228,5.0,13.0,51,0.00,,,0.00,817.0,meteohub,2013-04-17 15:03:00,
2013-04-17 11:08:00,54.7,37.4,30.27,SW,231,6.0,13.0,52,0.00,,,0.00,824.0,meteohub,2013-04-17 15:08:00,
2013-04-17 11:13:00,54.9,38.1,30.26,West,260,9.0,11.0,53,0.00,,,0.00,835.0,meteohub,2013-04-17 15:13:00,
2013-04-17 11:18:00,55.0,37.8,30.26,North,0,1.0,11.0,52,0.00,,,0.00,840.0,meteohub,2013-04-17 15:18:00,
2013-04-17 11:24:00,55.6,39.2,30.26,WNW,288,2.0,10.0,54,0.00,,,0.00,844.0,meteohub,2013-04-17 15:24:00,
2013-04-17 11:29:00,55.0,40.1,30.26,West,275,5.0,10.0,57,0.00,,,0.00,851.0,meteohub,2013-04-17 15:29:00,
2013-04-17 11:34:00,55.4,38.5,30.26,NNE,19,1.0,12.0,53,0.00,,,0.00,858.0,meteohub,2013-04-17 15:34:00,
2013-04-17 11:39:00,55.6,37.8,30.26,ENE,76,3.0,12.0,51,0.00,,,0.00,867.0,meteohub,2013-04-17 15:39:00,
2013-04-17 11:45:00,56.1,39.7,30.26,NW,313,5.0,12.0,54,0.00,,,0.00,870.0,meteohub,2013-04-17 15:45:00,
2013-04-17 11:50:00,56.3,40.3,30.26,NW,308,7.0,13.0,55,0.00,,,0.00,875.0,meteohub,2013-04-17 15:50:00,
2013-04-17 11:55:00,56.1,39.7,30.26,NW,308,6.0,13.0,54,0.00,,,0.00,877.0,meteohub,2013-04-17 15:55:00,
2013-04-17 12:01:00,56.1,40.1,30.26,WNW,296,4.0,12.0,55,0.00,,,0.00,886.0,meteohub,2013-04-17 16:01:00,
2013-04-17 12:06:00,56.7,40.6,30.25,NW,316,4.0,12.0,55,0.00,,,0.00,889.0,meteohub,2013-04-17 16:06:00,
2013-04-17 12:12:00,56.8,40.5,30.25,NE,49,1.0,12.0,54,0.00,,,0.00,891.0,meteohub,2013-04-17 16:12:00,
2013-04-17 12:17:00,57.2,40.3,30.25,East,89,2.0,9.0,53,0.00,,,0.00,896.0,meteohub,2013-04-17 16:17:00,
2013-04-17 12:22:00,57.7,39.2,30.25,NNW,327,5.0,9.0,50,0.00,,,0.00,896.0,meteohub,2013-04-17 16:22:00,
2013-04-17 12:28:00,58.3,40.3,30.25,West,275,10.0,10.0,51,0.00,,,0.00,900.0,meteohub,2013-04-17 16:28:00,
2013-04-17 12:33:00,58.6,41.5,30.24,North,9,2.0,11.0,53,0.00,,,0.00,898.0,meteohub,2013-04-17 16:33:00,
2013-04-17 12:38:00,58.6,41.0,30.24,ESE,116,0.0,11.0,52,0.00,,,0.00,898.0,meteohub,2013-04-17 16:38:00,
2013-04-17 12:43:00,59.2,40.6,30.24,West,271,3.0,11.0,50,0.00,,,0.00,905.0,meteohub,2013-04-17 16:43:00,
2013-04-17 12:48:00,59.4,39.2,30.24,NE,37,3.0,8.0,47,0.00,,,0.00,904.0,meteohub,2013-04-17 16:48:00,
2013-04-17 12:54:00,59.4,39.2,30.23,SSW,197,4.0,8.0,47,0.00,,,0.00,904.0,meteohub,2013-04-17 16:54:00,
2013-04-17 12:59:00,59.4,39.2,30.23,West,269,9.0,9.0,47,0.00,,,0.00,907.0,meteohub,2013-04-17 16:59:00,
2013-04-17 13:04:00,59.7,39.9,30.23,WNW,296,5.0,9.0,48,0.00,,,0.00,898.0,meteohub,2013-04-17 17:04:00,
2013-04-17 13:09:00,60.1,39.7,30.23,NW,306,9.0,12.0,47,0.00,,,0.00,900.0,meteohub,2013-04-17 17:09:00,
2013-04-17 13:15:00,59.7,39.4,30.23,WSW,257,5.0,15.0,47,0.00,,,0.00,907.0,meteohub,2013-04-17 17:15:00,
2013-04-17 13:20:00,59.7,38.3,30.23,NNE,16,1.0,15.0,45,0.00,,,0.00,905.0,meteohub,2013-04-17 17:20:00,
2013-04-17 13:25:00,60.1,39.7,30.23,North,350,4.0,15.0,47,0.00,,,0.00,886.0,meteohub,2013-04-17 17:25:00,
2013-04-17 13:30:00,60.3,41.0,30.22,WSW,250,4.0,15.0,49,0.00,,,0.00,886.0,meteohub,2013-04-17 17:30:00,
2013-04-17 13:36:00,60.6,40.8,30.23,NW,306,9.0,13.0,48,0.00,,,0.00,881.0,meteohub,2013-04-17 17:36:00,
2013-04-17 13:41:00,61.0,40.1,30.22,NW,312,3.0,13.0,46,0.00,,,0.00,882.0,meteohub,2013-04-17 17:41:00,
2013-04-17 13:47:00,61.2,41.4,30.22,WNW,282,4.0,13.0,48,0.00,,,0.00,875.0,meteohub,2013-04-17 17:47:00,
2013-04-17 13:52:00,61.3,40.5,30.23,NW,319,0.0,13.0,46,0.00,,,0.00,867.0,meteohub,2013-04-17 17:52:00,
2013-04-17 13:57:00,61.5,39.9,30.22,WNW,287,2.0,11.0,45,0.00,,,0.00,861.0,meteohub,2013-04-17 17:57:00,
2013-04-17 14:02:00,61.5,37.6,30.23,WNW,291,5.0,11.0,41,0.00,,,0.00,858.0,meteohub,2013-04-17 18:02:00,
2013-04-17 14:07:00,61.7,37.2,30.24,NW,311,3.0,16.0,40,0.00,,,0.00,853.0,meteohub,2013-04-17 18:07:00,
2013-04-17 14:12:00,61.7,37.2,30.23,East,99,2.0,16.0,40,0.00,,,0.00,846.0,meteohub,2013-04-17 18:12:00,
2013-04-17 14:17:00,61.5,37.0,30.23,NNW,333,1.0,16.0,40,0.00,,,0.00,844.0,meteohub,2013-04-17 18:17:00,
2013-04-17 14:22:00,61.9,38.5,30.23,SSE,148,2.0,16.0,42,0.00,,,0.00,837.0,meteohub,2013-04-17 18:22:00,
2013-04-17 14:27:00,62.4,36.5,30.23,WSW,240,5.0,11.0,38,0.00,,,0.00,823.0,meteohub,2013-04-17 18:27:00,
2013-04-17 14:32:00,62.8,38.1,30.23,WNW,302,7.0,11.0,40,0.00,,,0.00,819.0,meteohub,2013-04-17 18:32:00,
2013-04-17 14:37:00,63.0,36.3,30.22,WNW,296,4.0,11.0,37,0.00,,,0.00,810.0,meteohub,2013-04-17 18:37:00,
2013-04-17 14:42:00,63.0,36.3,30.23,SSE,159,2.0,11.0,37,0.00,,,0.00,800.0,meteohub,2013-04-17 18:42:00,
2013-04-17 14:48:00,63.1,35.8,30.23,NW,319,2.0,12.0,36,0.00,,,0.00,793.0,meteohub,2013-04-17 18:48:00,
2013-04-17 14:53:00,63.3,36.7,30.23,West,270,2.0,12.0,37,0.00,,,0.00,784.0,meteohub,2013-04-17 18:53:00,
2013-04-17 14:58:00,63.5,36.7,30.22,NW,309,0.0,12.0,37,0.00,,,0.00,772.0,meteohub,2013-04-17 18:58:00,
2013-04-17 15:04:00,63.9,36.3,30.22,WSW,244,5.0,12.0,36,0.00,,,0.00,761.0,meteohub,2013-04-17 19:04:00,
2013-04-17 15:09:00,63.9,36.3,30.22,WSW,248,7.0,10.0,36,0.00,,,0.00,751.0,meteohub,2013-04-17 19:09:00,
2013-04-17 15:14:00,63.9,35.6,30.22,West,261,4.0,10.0,35,0.00,,,0.00,740.0,meteohub,2013-04-17 19:14:00,
2013-04-17 15:19:00,63.9,36.3,30.22,NW,315,7.0,15.0,36,0.00,,,0.00,726.0,meteohub,2013-04-17 19:19:00,
2013-04-17 15:25:00,63.9,35.6,30.22,WNW,293,4.0,15.0,35,0.00,,,0.00,717.0,meteohub,2013-04-17 19:25:00,
2013-04-17 15:30:00,64.2,38.7,30.22,North,11,1.0,12.0,39,0.00,,,0.00,707.0,meteohub,2013-04-17 19:30:00,
2013-04-17 15:35:00,64.6,37.0,30.22,WNW,296,4.0,14.0,36,0.00,,,0.00,691.0,meteohub,2013-04-17 19:35:00,
2013-04-17 15:41:00,64.6,37.8,30.22,NNE,20,2.0,14.0,37,0.00,,,0.00,677.0,meteohub,2013-04-17 19:41:00,
2013-04-17 15:46:00,64.8,36.5,30.22,WNW,296,2.0,14.0,35,0.00,,,0.00,640.0,meteohub,2013-04-17 19:46:00,
2013-04-17 15:51:00,64.6,37.0,30.22,NW,325,3.0,14.0,36,0.00,,,0.00,656.0,meteohub,2013-04-17 19:51:00,
2013-04-17 15:56:00,64.6,35.6,30.22,WNW,301,3.0,14.0,34,0.00,,,0.00,642.0,meteohub,2013-04-17 19:56:00,
2013-04-17 16:01:00,64.8,38.5,30.22,NW,307,5.0,14.0,38,0.00,,,0.00,629.0,meteohub,2013-04-17 20:01:00,
2013-04-17 16:07:00,64.9,35.1,30.22,WNW,298,3.0,17.0,33,0.00,,,0.00,613.0,meteohub,2013-04-17 20:07:00,
2013-04-17 16:12:00,65.1,38.1,30.21,West,279,0.0,17.0,37,0.00,,,0.00,599.0,meteohub,2013-04-17 20:12:00,
2013-04-17 16:17:00,65.1,36.1,30.21,NNW,344,3.0,9.0,34,0.00,,,0.00,577.0,meteohub,2013-04-17 20:17:00,
2013-04-17 16:22:00,64.9,34.3,30.21,WNW,294,9.0,9.0,32,0.00,,,0.00,571.0,meteohub,2013-04-17 20:22:00,
2013-04-17 16:27:00,64.9,35.1,30.21,North,349,2.0,10.0,33,0.00,,,0.00,550.0,meteohub,2013-04-17 20:27:00,
2013-04-17 16:32:00,64.8,35.1,30.22,NW,309,5.0,10.0,33,0.00,,,0.00,540.0,meteohub,2013-04-17 20:32:00,
2013-04-17 16:37:00,64.9,36.0,30.22,WSW,248,11.0,12.0,34,0.00,,,0.00,527.0,meteohub,2013-04-17 20:37:00,
2013-04-17 16:42:00,64.9,36.7,30.22,East,96,3.0,12.0,35,0.00,,,0.00,519.0,meteohub,2013-04-17 20:42:00,
2013-04-17 16:47:00,65.1,35.2,30.22,NW,313,0.0,12.0,33,0.00,,,0.00,510.0,meteohub,2013-04-17 20:47:00,
2013-04-17 16:52:00,65.1,35.2,30.22,West,266,4.0,12.0,33,0.00,,,0.00,508.0,meteohub,2013-04-17 20:52:00,
2013-04-17 16:57:00,64.9,38.1,30.22,NE,56,3.0,7.0,37,0.00,,,0.00,478.0,meteohub,2013-04-17 20:57:00,
2013-04-17 17:02:00,64.9,37.4,30.23,NNE,22,3.0,7.0,36,0.00,,,0.00,454.0,meteohub,2013-04-17 21:02:00,
2013-04-17 17:07:00,64.9,36.0,30.23,NE,43,2.0,11.0,34,0.00,,,0.00,434.0,meteohub,2013-04-17 21:07:00,
2013-04-17 17:12:00,64.9,36.0,30.23,NE,40,1.0,11.0,34,0.00,,,0.00,420.0,meteohub,2013-04-17 21:12:00,
2013-04-17 17:17:00,64.9,35.1,30.23,North,5,2.0,11.0,33,0.00,,,0.00,403.0,meteohub,2013-04-17 21:17:00,
2013-04-17 17:22:00,64.9,35.1,30.24,WSW,252,3.0,9.0,33,0.00,,,0.00,387.0,meteohub,2013-04-17 21:22:00,
2013-04-17 17:27:00,65.1,34.5,30.24,WSW,238,2.0,9.0,32,0.00,,,0.00,369.0,meteohub,2013-04-17 21:27:00,
2013-04-17 17:32:00,65.1,34.5,30.24,WNW,300,3.0,9.0,32,0.00,,,0.00,348.0,meteohub,2013-04-17 21:32:00,
2013-04-17 17:38:00,64.9,35.1,30.24,WSW,246,0.0,11.0,33,0.00,,,0.00,330.0,meteohub,2013-04-17 21:38:00,
2013-04-17 17:43:00,65.1,35.2,30.24,WSW,241,1.0,11.0,33,0.00,,,0.00,313.0,meteohub,2013-04-17 21:43:00,
2013-04-17 17:48:00,65.3,34.7,30.24,NNW,344,1.0,11.0,32,0.00,,,0.00,294.0,meteohub,2013-04-17 21:48:00,
2013-04-17 17:54:00,65.3,35.4,30.24,SW,232,5.0,11.0,33,0.00,,,0.00,278.0,meteohub,2013-04-17 21:54:00,
2013-04-17 17:59:00,65.5,36.3,30.25,NE,46,1.0,6.0,34,0.00,,,0.00,192.0,meteohub,2013-04-17 21:59:00,
2013-04-17 18:04:00,65.5,37.0,30.25,East,93,1.0,6.0,35,0.00,,,0.00,134.0,meteohub,2013-04-17 22:04:00,
2013-04-17 18:09:00,65.1,34.5,30.25,ENE,67,0.0,5.0,32,0.00,,,0.00,125.0,meteohub,2013-04-17 22:09:00,
2013-04-17 18:14:00,64.8,35.1,30.25,East,99,1.0,5.0,33,0.00,,,0.00,123.0,meteohub,2013-04-17 22:14:00,
2013-04-17 18:20:00,64.2,36.0,30.25,East,80,0.0,6.0,35,0.00,,,0.00,111.0,meteohub,2013-04-17 22:20:00,
2013-04-17 18:25:00,63.9,36.3,30.25,ESE,103,1.0,6.0,36,0.00,,,0.00,58.0,meteohub,2013-04-17 22:25:00,
2013-04-17 18:30:00,63.3,34.5,30.25,ESE,114,0.0,6.0,34,0.00,,,0.00,79.0,meteohub,2013-04-17 22:30:00,
2013-04-17 18:36:00,63.0,34.2,30.25,SE,128,3.0,6.0,34,0.00,,,0.00,54.0,meteohub,2013-04-17 22:36:00,
2013-04-17 18:41:00,62.6,34.5,30.25,ENE,74,1.0,6.0,35,0.00,,,0.00,47.0,meteohub,2013-04-17 22:41:00,
2013-04-17 18:46:00,62.4,32.9,30.25,SSE,162,0.0,7.0,33,0.00,,,0.00,33.0,meteohub,2013-04-17 22:46:00,
2013-04-17 18:52:00,62.2,34.9,30.25,SE,127,0.0,7.0,36,0.00,,,0.00,28.0,meteohub,2013-04-17 22:52:00,
2013-04-17 18:57:00,61.9,34.7,30.25,ESE,112,5.0,5.0,36,0.00,,,0.00,26.0,meteohub,2013-04-17 22:57:00,
2013-04-17 19:02:00,61.2,34.7,30.25,East,99,5.0,5.0,37,0.00,,,0.00,25.0,meteohub,2013-04-17 23:02:00,
2013-04-17 19:07:00,60.8,35.1,30.25,East,82,2.0,8.0,38,0.00,,,0.00,23.0,meteohub,2013-04-17 23:07:00,
2013-04-17 19:12:00,60.4,34.0,30.26,ENE,78,0.0,8.0,37,0.00,,,0.00,21.0,meteohub,2013-04-17 23:12:00,
2013-04-17 19:17:00,60.3,35.2,30.26,ESE,105,0.0,8.0,39,0.00,,,0.00,18.0,meteohub,2013-04-17 23:17:00,
2013-04-17 19:22:00,59.9,34.9,30.26,East,95,2.0,8.0,39,0.00,,,0.00,14.0,meteohub,2013-04-17 23:22:00,
2013-04-17 19:27:00,59.5,34.5,30.27,ENE,74,3.0,6.0,39,0.00,,,0.00,11.0,meteohub,2013-04-17 23:27:00,
2013-04-17 19:32:00,59.2,34.9,30.26,ESE,113,0.0,6.0,40,0.00,,,0.00,5.0,meteohub,2013-04-17 23:32:00,
2013-04-17 19:37:00,59.0,34.7,30.26,ESE,111,0.0,6.0,40,0.00,,,0.00,0.0,meteohub,2013-04-17 23:37:00,
2013-04-17 19:42:00,58.6,35.1,30.26,ESE,110,0.0,6.0,41,0.00,,,0.00,0.0,meteohub,2013-04-17 23:42:00,
2013-04-17 19:47:00,58.3,35.2,30.25,ESE,104,2.0,4.0,42,0.00,,,0.00,0.0,meteohub,2013-04-17 23:47:00,
2013-04-17 19:52:00,57.9,35.6,30.26,East,89,2.0,4.0,43,0.00,,,0.00,0.0,meteohub,2013-04-17 23:52:00,
2013-04-17 19:57:00,57.6,35.8,30.26,East,89,0.0,3.0,44,0.00,,,0.00,0.0,meteohub,2013-04-17 23:57:00,
2013-04-17 20:03:00,57.4,35.6,30.26,East,89,0.0,3.0,44,0.00,,,0.00,0.0,meteohub,2013-04-18 00:03:00,
2013-04-17 20:08:00,56.8,35.8,30.26,East,80,2.0,2.0,45,0.00,,,0.00,0.0,meteohub,2013-04-18 00:08:00,
2013-04-17 20:13:00,56.7,36.1,30.26,East,86,1.0,4.0,46,0.00,,,0.00,0.0,meteohub,2013-04-18 00:13:00,
2013-04-17 20:18:00,56.5,36.5,30.27,ENE,71,4.0,6.0,47,0.00,,,0.00,0.0,meteohub,2013-04-18 00:18:00,
2013-04-17 20:24:00,56.1,36.7,30.27,East,84,1.0,6.0,48,0.00,,,0.00,0.0,meteohub,2013-04-18 00:24:00,
2013-04-17 20:29:00,55.9,36.5,30.27,ENE,78,3.0,6.0,48,0.00,,,0.00,0.0,meteohub,2013-04-18 00:29:00,
2013-04-17 20:34:00,55.9,36.5,30.28,East,95,2.0,6.0,48,0.00,,,0.00,0.0,meteohub,2013-04-18 00:34:00,
2013-04-17 20:39:00,55.8,36.3,30.28,East,92,2.0,5.0,48,0.00,,,0.00,0.0,meteohub,2013-04-18 00:39:00,
2013-04-17 20:44:00,55.6,36.1,30.28,East,86,1.0,5.0,48,0.00,,,0.00,0.0,meteohub,2013-04-18 00:44:00,
2013-04-17 20:49:00,55.2,36.3,30.29,ENE,69,0.0,4.0,49,0.00,,,0.00,0.0,meteohub,2013-04-18 00:49:00,
2013-04-17 20:55:00,55.0,36.1,30.28,ENE,78,3.0,4.0,49,0.00,,,0.00,0.0,meteohub,2013-04-18 00:55:00,
2013-04-17 21:00:00,54.9,36.5,30.28,East,82,1.0,4.0,50,0.00,,,0.00,0.0,meteohub,2013-04-18 01:00:00,
2013-04-17 21:05:00,54.7,36.3,30.29,ESE,107,7.0,7.0,50,0.00,,,0.00,0.0,meteohub,2013-04-18 01:05:00,
2013-04-17 21:11:00,54.5,36.7,30.29,East,82,0.0,8.0,51,0.00,,,0.00,0.0,meteohub,2013-04-18 01:11:00,
2013-04-17 21:16:00,54.1,36.9,30.30,East,97,0.0,8.0,52,0.00,,,0.00,0.0,meteohub,2013-04-18 01:16:00,
2013-04-17 21:21:00,54.0,36.3,30.30,ENE,63,0.0,8.0,51,0.00,,,0.00,0.0,meteohub,2013-04-18 01:21:00,
2013-04-17 21:27:00,53.6,36.0,30.30,SE,126,0.0,4.0,51,0.00,,,0.00,0.0,meteohub,2013-04-18 01:27:00,
2013-04-17 21:32:00,53.4,37.2,30.31,SE,126,0.0,4.0,54,0.00,,,0.00,0.0,meteohub,2013-04-18 01:32:00,
2013-04-17 21:37:00,53.1,36.3,30.30,ENE,62,0.0,3.0,53,0.00,,,0.00,0.0,meteohub,2013-04-18 01:37:00,
2013-04-17 21:42:00,52.9,36.1,30.30,East,84,0.0,3.0,53,0.00,,,0.00,0.0,meteohub,2013-04-18 01:42:00,
2013-04-17 21:47:00,52.5,36.9,30.30,SE,134,0.0,3.0,55,0.00,,,0.00,0.0,meteohub,2013-04-18 01:47:00,
2013-04-17 21:52:00,52.2,36.0,30.29,ESE,107,0.0,3.0,54,0.00,,,0.00,0.0,meteohub,2013-04-18 01:52:00,
2013-04-17 21:57:00,51.8,36.1,30.30,NNE,27,0.0,3.0,55,0.00,,,0.00,0.0,meteohub,2013-04-18 01:57:00,
2013-04-17 22:02:00,51.6,36.5,30.30,East,96,0.0,3.0,56,0.00,,,0.00,0.0,meteohub,2013-04-18 02:02:00,
2013-04-17 22:08:00,51.4,35.8,30.30,East,86,0.0,3.0,55,0.00,,,0.00,0.0,meteohub,2013-04-18 02:08:00,
2013-04-17 22:13:00,51.3,36.5,30.30,East,86,0.0,2.0,57,0.00,,,0.00,0.0,meteohub,2013-04-18 02:13:00,
2013-04-17 22:18:00,51.1,36.3,30.30,East,86,0.0,1.0,57,0.00,,,0.00,0.0,meteohub,2013-04-18 02:18:00,
2013-04-17 22:24:00,50.7,36.9,30.30,East,86,0.0,1.0,59,0.00,,,0.00,0.0,meteohub,2013-04-18 02:24:00,
2013-04-17 22:29:00,50.4,36.5,30.30,NNW,348,0.0,0.0,59,0.00,,,0.00,0.0,meteohub,2013-04-18 02:29:00,
2013-04-17 22:34:00,50.2,36.3,30.29,NNW,348,0.0,0.0,59,0.00,,,0.00,0.0,meteohub,2013-04-18 02:34:00,
2013-04-17 22:39:00,49.8,36.5,30.30,NNW,348,0.0,2.0,60,0.00,,,0.00,0.0,meteohub,2013-04-18 02:39:00,
2013-04-17 22:45:00,49.5,36.1,30.30,NNE,14,0.0,2.0,60,0.00,,,0.00,0.0,meteohub,2013-04-18 02:45:00,
2013-04-17 22:50:00,49.3,36.9,30.30,NNE,14,0.0,3.0,62,0.00,,,0.00,0.0,meteohub,2013-04-18 02:50:00,
2013-04-17 22:55:00,48.7,36.3,30.30,NNE,14,1.0,3.0,62,0.00,,,0.00,0.0,meteohub,2013-04-18 02:55:00,
2013-04-17 23:00:00,48.4,36.3,30.30,NNE,14,0.0,3.0,63,0.00,,,0.00,0.0,meteohub,2013-04-18 03:00:00,
2013-04-17 23:05:00,48.0,36.5,30.31,NNE,14,0.0,3.0,64,0.00,,,0.00,0.0,meteohub,2013-04-18 03:05:00,
2013-04-17 23:11:00,47.8,36.3,30.31,NNE,20,0.0,1.0,64,0.00,,,0.00,0.0,meteohub,2013-04-18 03:11:00,
2013-04-17 23:16:00,47.5,36.0,30.31,NW,318,1.0,1.0,64,0.00,,,0.00,0.0,meteohub,2013-04-18 03:16:00,
2013-04-17 23:22:00,47.1,36.0,30.31,NW,318,0.0,1.0,65,0.00,,,0.00,0.0,meteohub,2013-04-18 03:22:00,
2013-04-17 23:27:00,46.9,35.4,30.31,NNW,342,0.0,1.0,64,0.00,,,0.00,0.0,meteohub,2013-04-18 03:27:00,
2013-04-17 23:32:00,46.8,34.9,30.31,ESE,105,0.0,4.0,63,0.00,,,0.00,0.0,meteohub,2013-04-18 03:32:00,
2013-04-17 23:37:00,46.9,35.1,30.31,North,355,0.0,4.0,63,0.00,,,0.00,0.0,meteohub,2013-04-18 03:37:00,
2013-04-17 23:42:00,46.9,35.1,30.31,NNE,18,3.0,5.0,63,0.00,,,0.00,0.0,meteohub,2013-04-18 03:42:00,
2013-04-17 23:47:00,46.9,34.5,30.31,East,94,1.0,5.0,62,0.00,,,0.00,0.0,meteohub,2013-04-18 03:47:00,
2013-04-17 23:52:00,47.3,34.9,30.31,East,98,3.0,5.0,62,0.00,,,0.00,0.0,meteohub,2013-04-18 03:52:00,
2013-04-17 23:57:00,47.5,34.7,30.31,East,99,2.0,5.0,61,0.00,,,0.00,0.0,meteohub,2013-04-18 03:57:00,